Content
SEND FEEDBACK

Daily
Averages
Monthly
Summary
United States of America

SOUTHPORT, NORTH CAROLINA


Home > North America > United States > North Carolina
Elevation: 38 feet     Latitude: 34 00N     Longitude: 078 01W

WEATHER
 
SELECT A DAY
Number of Records: 147,950;   Date Range: 8/21/01 - 12/19/14
 
SHARE

PRINT THIS DATA

[ ← Previous Day ]
WEATHER ALMANAC - JANUARY 3, 2013
[ Next Day → ]
[ °C ]   °F
Weather ElementAverageHighLow
Temperature40.4 °F44.4 °F (12:15 pm)34.7 °F (11:55 pm)
Dewpoint37.8 °F42.4 °F (12:15 pm)33.6 °F (11:55 pm)
Humidity90.6 %96 % (10:35 am)81 % (6:35 am)
Barometer30.18 in30.27 in (10:35 pm)30.12 in (3:55 am)
Wind Speed5.3 mph10.4 mph (1:55 pm)
Weather ElementAverage
Visibility7.4 mi
Wind DirectionESE (126.9 °)

Weather ElementTotal
Precipitation0.11 in
Heating Degree Days25.5 (Base 65)
Averaged from 70 records on January 3, 2013
WEATHER CONDITIONS BREAKOUT
WIND DIRECTION BREAKOUT
WEATHER BY HOUR - JANUARY 3, 2013
[ °C ]   °F
Local TimeTemperatureDewpointHumidityBarometerVisibilityWind DirectionWind SpeedGust SpeedPrecipitationEventsConditions
12:35 AM41.4 °F37.4 °F86 %30.15 in10.0 miNE (40°)5.8 mphOvercast
12:55 AM41.4 °F37.4 °F86 %30.15 in10.0 miNNE (20°)6.9 mphOvercast
1:15 AM41.4 °F37.6 °F86 %30.14 in10.0 miNNE (30°)5.8 mphOvercast
1:35 AM41.4 °F37.8 °F87 %30.14 in10.0 miNNE (20°)5.8 mphMostly Cloudy
1:55 AM41.2 °F37.8 °F88 %30.13 in10.0 miNE (40°)6.9 mphScattered Clouds
2:15 AM41.0 °F37.8 °F88 %30.13 in10.0 miNE (40°)4.6 mphClear
2:35 AM41.0 °F37.6 °F88 %30.13 in10.0 miNE (40°)6.9 mphClear
2:55 AM41.0 °F37.4 °F87 %30.14 in10.0 miNE (40°)4.6 mphClear
3:15 AM40.8 °F37.4 °F88 %30.13 in10.0 miNE (40°)4.6 mphClear
3:35 AM40.8 °F37.2 °F87 %30.13 in10.0 miNNE (30°)6.9 mphClear
3:55 AM41.0 °F37.0 °F86 %30.12 in7.0 miNNE (20°)5.8 mphScattered Clouds
4:15 AM41.2 °F36.9 °F85 %30.13 in7.0 miNNE (20°)4.6 mphScattered Clouds
4:35 AM41.2 °F36.9 °F85 %30.14 in7.0 miNorth (10°)5.8 mphScattered Clouds
4:55 AM41.0 °F36.5 °F84 %30.14 in7.0 miNorth (10°)6.9 mphScattered Clouds
5:15 AM40.5 °F36.1 °F85 %30.14 in7.0 miNNE (20°)5.8 mphScattered Clouds
5:35 AM40.3 °F35.8 °F84 %30.16 in7.0 miNorth (10°)5.8 mphScattered Clouds
5:55 AM40.3 °F35.6 °F83 %30.16 in10.0 miNorth (360°)5.8 mphScattered Clouds
6:15 AM40.1 °F35.1 °F82 %30.15 in10.0 miNNE (20°)8.1 mphClear
6:35 AM40.1 °F34.7 °F81 %30.15 in10.0 miNorth (10°)8.1 mphClear
6:55 AM40.1 °F34.7 °F81 %30.18 in10.0 miNorth (10°)6.9 mphClear
7:15 AM39.6 °F34.9 °F83 %30.18 in10.0 miNNE (20°)6.9 mphLight Drizzle
7:35 AM39.2 °F35.1 °F85 %30.17 in10.0 miNNE (20°)9.2 mphLight Drizzle
7:55 AM38.8 °F35.1 °F86 %30.18 in10.0 miNorth (10°)6.9 mphLight Drizzle
8:35 AM38.5 °F35.6 °F89 %30.20 in10.0 miNorth (10°)8.1 mphScattered Clouds
8:55 AM38.5 °F35.2 °F88 %30.19 in10.0 miNNE (30°)5.8 mphLight Drizzle
9:15 AM38.7 °F36.3 °F91 %30.19 in7.0 miNE (50°)4.6 mphRainLight Rain
9:35 AM39.2 °F37.2 °F93 %30.20 in5.0 miCalm0.01 inRainLight Rain
9:55 AM39.6 °F38.3 °F95 %30.20 in5.0 miCalm0.01 inRainLight Rain
10:15 AM40.1 °F38.8 °F95 %30.20 in4.0 miCalm0.01 inRainLight Rain
10:35 AM41.2 °F40.1 °F96 %30.19 in4.0 miNE (40°)3.5 mph0.02 inRainLight Rain
10:55 AM42.6 °F41.4 °F95 %30.19 in4.0 miENE (60°)4.6 mph0.02 inRainLight Rain
11:15 AM43.0 °F41.5 °F95 %30.17 in5.0 miENE (60°)6.9 mphRainLight Rain
11:35 AM43.7 °F41.9 °F93 %30.15 in7.0 miENE (60°)6.9 mphDrizzle
11:55 AM44.2 °F41.9 °F91 %30.16 in7.0 miNNE (20°)6.9 mphLight Drizzle
12:15 PM44.4 °F42.4 °F93 %30.16 in7.0 miNorth (10°)9.2 mph0.01 inRainRain
12:35 PM44.1 °F42.3 °F93 %30.16 in7.0 miNorth (10°)5.8 mph0.01 inRainRain
12:55 PM44.1 °F42.1 °F93 %30.16 in7.0 miNNE (20°)4.6 mph0.01 inRainRain
1:15 PM43.9 °F42.1 °F93 %30.15 in5.0 miCalmRainLight Rain
1:35 PM44.1 °F42.4 °F94 %30.14 in5.0 miNorth (10°)6.9 mphDrizzle
1:55 PM42.4 °F41.2 °F95 %30.15 in5.0 miNorth (350°)10.4 mph0.01 inLight Drizzle
2:15 PM41.5 °F40.5 °F96 %30.15 in5.0 miNorth (10°)4.6 mphLight Drizzle
2:35 PM41.5 °F40.5 °F96 %30.15 in7.0 miNorth (360°)5.8 mphOvercast
2:55 PM41.9 °F40.5 °F95 %30.14 in5.0 miNorth (10°)5.8 mphOvercast
3:15 PM41.5 °F40.5 °F96 %30.16 in5.0 miNorth (360°)8.1 mphOvercast
3:35 PM41.2 °F40.1 °F96 %30.17 in7.0 miNorth (360°)9.2 mphOvercast
3:55 PM40.5 °F39.4 °F96 %30.17 in5.0 miNorth (360°)6.9 mphOvercast
4:15 PM40.5 °F39.0 °F95 %30.17 in7.0 miNE (40°)3.5 mphOvercast
4:35 PM40.5 °F39.2 °F95 %30.16 in5.0 miCalmMostly Cloudy
4:55 PM40.3 °F39.2 °F96 %30.19 in5.0 miNorth (360°)8.1 mphOvercast
5:15 PM40.1 °F38.7 °F95 %30.17 in7.0 miNNE (30°)3.5 mphOvercast
5:35 PM40.1 °F38.5 °F94 %30.19 in7.0 miNNE (20°)4.6 mphMostly Cloudy
5:55 PM40.1 °F38.5 °F94 %30.20 in7.0 miNorth (350°)4.6 mphMostly Cloudy
6:15 PM39.9 °F38.5 °F95 %30.21 in7.0 miNorth (360°)3.5 mphMostly Cloudy
6:35 PM39.7 °F38.3 °F95 %30.21 in7.0 miNorth (350°)5.8 mphOvercast
6:55 PM39.6 °F37.9 °F94 %30.21 in7.0 miNNE (20°)6.9 mphMostly Cloudy
7:15 PM39.6 °F37.9 °F94 %30.22 in7.0 miNorth (360°)6.9 mphMostly Cloudy
7:35 PM39.4 °F37.8 °F94 %30.22 in5.0 miNorth (10°)6.9 mphMostly Cloudy
7:55 PM39.2 °F37.4 °F93 %30.24 in7.0 miNorth (360°)4.6 mphMostly Cloudy
8:15 PM39.2 °F37.0 °F92 %30.24 in7.0 miNorth (360°)5.8 mphOvercast
8:35 PM38.8 °F36.5 °F91 %30.23 in7.0 miNorth (360°)6.9 mphMostly Cloudy
8:55 PM38.8 °F36.0 °F89 %30.25 in7.0 miNorth (360°)4.6 mphMostly Cloudy
9:15 PM38.8 °F35.6 °F88 %30.25 in7.0 miNorth (360°)4.6 mphOvercast
9:35 PM38.8 °F35.4 °F88 %30.25 in10.0 miNorth (360°)3.5 mphOvercast
9:55 PM38.7 °F35.2 °F87 %30.26 in10.0 miNorth (350°)3.5 mphOvercast
10:15 PM38.3 °F34.9 °F87 %30.26 in10.0 miNorth (350°)3.5 mphScattered Clouds
10:35 PM37.4 °F34.7 °F90 %30.27 in7.0 miNorth (350°)3.5 mphClear
10:55 PM36.7 °F34.7 °F93 %30.27 in7.0 miCalmClear
11:15 PM35.6 °F34.2 °F94 %30.27 in5.0 miNorth (350°)3.5 mphClear
11:35 PM34.9 °F33.8 °F96 %30.26 in5.0 miCalmClear
11:55 PM34.7 °F33.6 °F96 %30.26 in5.0 miNorth (350°)4.6 mphClear
Hourly data recorded from KSUT, located miles away from Southport, North Carolina







STORIES FROM OUR PARTNERS